[[{"header":{"parameterUnit":"m.s-1","parameterCategory":1,"la1":30.2991,"la2":30.254,"lo1":-89.0895,"lo2":-89.0444,"dy":0.0017,"dx":0.0017,"nx":28,"ny":28,"refTime":"2023-07-29T21:00:00:Z","depth":0,"parameterNumber":2,"parameterNumberName":"U-component_of_WINDS"},"data":[0,0,0,0,0,0,0,0,0,0,0,0,0,0,0,0,0,0,0,0,0,0,0,0,0,0,0,0,0,0,0,0,0,0,0,0,0,0,0,0,0,0,0,0,0,0,0,0,0,0,0,0,0,0,0,0,0,0,1.9377,1.9378,0,1.9479,1.9481,1.9482,1.9461,1.9459,1.9457,1.9455,1.9568,1.9573,1.9578,0,0,0,0,0,0,0,0,0,0,0,0,0,1.9171,1.9175,1.9376,1.9378,1.9379,1.9479,1.9481,1.9482,1.9461,1.9459,1.9457,1.9454,1.9567,1.9572,1.9578,0,0,0,0,0,0,0,0,0,0,0,0,0,1.9266,1.9176,1.9376,1.938,1.9382,1.9479,1.9481,1.9482,1.9462,1.9459,1.9456,1.9453,1.9565,1.9572,1.9579,1.968,0,0,1.9601,1.9604,0,0,0,0,0,0,0,0,1.9261,1.9273,1.9379,1.938,1.9382,1.9454,1.945,1.9549,1.9462,1.9432,1.9455,1.9452,1.9533,1.9543,1.9569,1.9686,1.969,1.9601,1.9606,1.9609,1.9611,0,0,0,0,0,0,0,1.9254,1.9269,1.9417,1.938,1.9382,1.938,1.9391,1.9468,1.9498,1.9434,1.9433,1.9445,1.9534,1.9562,1.9571,1.9692,1.9601,1.9608,1.9612,1.9615,1.9903,1.9906,0,0,0,0,0,0,1.9245,1.9264,1.9414,1.942,1.9313,1.9386,1.9398,1.9434,1.9496,1.9503,1.9447,1.9444,1.9551,1.9563,1.9575,1.9702,1.9609,1.9616,1.962,1.99,1.9904,1.9907,0,0,0,0,0,0,1.924,1.9258,1.941,1.9342,1.9361,1.9393,1.9434,1.9438,1.9466,1.9506,1.9512,1.947,1.9549,1.9565,1.9655,1.9705,1.9619,1.9625,1.9896,1.9901,1.9905,1.9953,0,0,0,0,0,0,1.9234,1.9257,1.9293,1.9343,1.9364,1.9486,1.9437,1.9442,1.9477,1.9473,1.9529,1.9536,1.9548,1.9644,1.9662,1.9713,1.9631,1.9891,1.9898,1.9904,1.9948,1.9959,1.997,0,0,0,0,0,1.9227,1.9303,1.9295,1.9314,1.941,1.9488,1.9501,1.9511,1.9481,1.952,1.9547,1.9534,1.9696,1.9654,1.9673,1.9728,1.9888,1.9896,1.9903,1.9943,1.9957,1.9969,0,0,0,0,0,0,1.9261,1.931,1.9301,1.9395,1.9438,1.9484,1.9534,1.9526,1.958,1.9574,1.9587,1.96,1.9692,1.9719,1.9671,1.9832,1.9788,1.98,1.9811,1.9826,1.9836,1.983,1.9637,0,0,0,0,0,1.9279,1.9335,1.9376,1.9455,1.9476,1.9502,1.9536,1.954,1.9586,1.9604,1.9637,1.9684,1.9746,1.9787,1.9845,1.995,1.9965,1.9998,2.0009,2.0018,2.0029,2.0091,2.0108,1.9932,1.9932,1.9932,0,0,1.9318,1.9351,1.9386,1.9463,1.9496,1.9558,1.9517,1.9583,1.963,1.9615,1.9702,1.9728,1.9782,1.9881,1.9926,1.9906,2.008,2.0027,2.0034,2.0041,2.0101,2.0117,2.0132,1.9937,1.9936,1.9935,0,0,1.942,1.9449,1.952,1.9555,1.9605,1.9622,1.9639,1.9687,1.9704,1.9791,1.9782,1.984,1.9945,1.9985,2.0019,2.0139,2.0131,2.0158,2.0217,2.0277,2.0291,2.0304,2.0351,2.0367,2.0168,2.0168,2.0168,0,1.9463,1.9553,1.9558,1.9626,1.9662,1.9649,1.9724,1.9757,1.9826,1.9853,1.9828,1.9962,1.9996,2.0107,2.0136,2.0162,2.0186,2.0153,2.0288,2.0301,2.0312,2.0358,2.0375,2.0171,2.0171,2.0171,2.017,0,1.9605,1.9667,1.9719,1.9784,1.9826,1.9896,1.9916,1.9958,1.9959,1.9979,2.0071,2.0112,2.0181,2.0207,2.0209,2.0319,2.0306,2.0284,2.0242,2.0332,2.0375,2.0392,2.0176,2.0175,2.0174,2.0173,0,0,1.9733,1.98,1.982,1.9851,1.9907,1.9957,2.0029,2.0094,2.0132,2.018,2.0244,2.0334,2.0315,2.0354,2.036,2.0413,2.0511,2.0385,2.0387,2.0411,2.064,2.0659,2.0679,2.0504,2.0508,2.051,2.0637,0,1.9844,1.9968,1.9977,2.0091,2.0152,2.0141,2.0205,2.0248,2.0269,2.0326,2.035,2.0416,2.0383,2.0408,2.0459,2.0488,2.0558,2.0478,2.0569,2.0572,2.0559,2.07,2.072,2.0838,2.0654,2.0657,2.0659,0,1.999,2.0041,2.0161,2.0212,2.0238,2.0294,2.0357,2.041,2.046,2.0472,2.0516,2.0516,2.0594,2.0546,2.0657,2.0603,2.064,2.066,2.0665,2.0677,2.0623,2.0721,2.0875,2.0894,2.0684,2.0682,2.068,0,2.0077,2.0176,2.0262,2.0288,2.0347,2.0388,2.0415,2.0462,2.0502,2.0558,2.0585,2.0649,2.0685,2.0737,2.0756,2.0718,2.0867,2.0819,2.0884,2.0883,2.0918,2.0917,2.1085,2.0935,2.0935,2.0935,2.0934,0,2.0202,2.0278,2.0302,2.0355,2.044,2.045,2.0535,2.0561,2.0603,2.0664,2.0658,2.0716,2.0735,2.0797,2.0812,2.0904,2.092,2.0935,2.0939,2.0938,2.0937,2.0965,2.0959,2.094,2.0939,2.0938,2.0937,0,2.0315,2.0334,2.0427,2.0476,2.049,2.0551,2.0595,2.0648,2.0668,2.0745,2.0764,2.0797,2.087,2.0892,2.0981,2.0991,2.11,2.1095,2.1083,2.1085,2.1149,2.1144,2.1345,2.1374,2.1202,2.1203,2.1204,0,2.0396,2.0453,2.0508,2.0548,2.0576,2.0639,2.068,2.0693,2.0736,2.0799,2.0846,2.0918,2.0976,2.1094,2.1128,2.1197,2.1196,2.1261,2.1206,2.1205,2.1202,2.12,2.1208,2.1273,2.1275,2.1276,2.1277,0,2.0539,2.0546,2.0603,2.0666,2.0714,2.0764,2.0812,2.0845,2.0866,2.0916,2.0989,2.1035,2.1125,2.1198,2.1268,2.13,2.1295,2.1294,2.1313,2.1315,2.1308,2.1317,2.1116,2.129,2.1289,2.1288,2.1287,2.1287,2.0642,2.0694,2.0741,2.0807,2.0844,2.089,2.0943,2.097,2.1031,2.1104,2.1108,2.119,2.1242,2.1335,2.137,2.1436,2.1418,2.1445,2.1452,2.146,2.1467,2.1293,2.1449,2.1448,2.1448,2.1448,2.1448,0,2.0788,2.0818,2.0878,2.0946,2.0999,2.0985,2.1038,2.1085,2.1155,2.1203,2.126,2.1348,2.1419,2.1458,2.153,2.1576,2.1576,2.1595,2.1594,2.1603,2.1477,2.1455,2.1594,2.1594,2.1594,2.1594,2.1594,2.1594,2.0871,2.096,2.0973,2.1082,2.1112,2.119,2.1222,2.1266,2.1305,2.1401,2.146,2.1484,2.153,2.1606,2.1672,2.1682,2.1711,2.1733,2.1742,2.1626,2.1611,2.1597,2.1576,2.1738,2.1739,2.1863,2.1864,2.1865]},{"header":{"parameterUnit":"m.s-1","parameterCategory":1,"la1":30.2991,"la2":30.254,"lo1":-89.0895,"lo2":-89.0444,"dy":0.0017,"dx":0.0017,"nx":28,"ny":28,"refTime":"2023-07-29T21:00:00:Z","depth":0,"parameterNumber":3,"parameterNumberName":"V-component_of_WINDS"},"data":[0,0,0,0,0,0,0,0,0,0,0,0,0,0,0,0,0,0,0,0,0,0,0,0,0,0,0,0,0,0,0,0,0,0,0,0,0,0,0,0,0,0,0,0,0,0,0,0,0,0,0,0,0,0,0,0,0,0,0.9263,0.9264,0,0.9371,0.9372,0.9373,0.938,0.9379,0.9378,0.9376,0.9484,0.9488,0.9492,0,0,0,0,0,0,0,0,0,0,0,0,0,0.9058,0.9061,0.9263,0.9264,0.9266,0.9371,0.9372,0.9373,0.938,0.9379,0.9377,0.9376,0.9482,0.9487,0.9492,0,0,0,0,0,0,0,0,0,0,0,0,0,0.9154,0.9063,0.9263,0.9282,0.9285,0.937,0.9372,0.9374,0.938,0.9379,0.9377,0.9375,0.9481,0.9487,0.9493,0.9566,0,0,0.9511,0.9513,0,0,0,0,0,0,0,0,0.9149,0.9162,0.9278,0.9281,0.9284,0.936,0.9339,0.9438,0.9381,0.9344,0.9376,0.9374,0.9444,0.9453,0.9477,0.9571,0.9575,0.9511,0.9515,0.9518,0.9519,0,0,0,0,0,0,0,0.9142,0.9157,0.9306,0.9279,0.9283,0.9283,0.9295,0.9358,0.9403,0.9347,0.9348,0.9361,0.9445,0.9471,0.9479,0.9577,0.9511,0.9516,0.952,0.9523,0.973,0.9732,0,0,0,0,0,0,0.9132,0.9151,0.9302,0.9309,0.9211,0.9288,0.9301,0.9337,0.9402,0.941,0.9362,0.9361,0.9462,0.9472,0.9483,0.957,0.9517,0.9523,0.9527,0.9729,0.9731,0.9733,0,0,0,0,0,0,0.9128,0.9146,0.9298,0.923,0.925,0.9294,0.9334,0.9341,0.9366,0.9413,0.9421,0.9381,0.9461,0.9475,0.9544,0.9573,0.9526,0.9531,0.9726,0.9729,0.9732,0.9745,0,0,0,0,0,0,0.9122,0.9144,0.9174,0.9231,0.9253,0.9359,0.9336,0.9344,0.9377,0.9376,0.9433,0.944,0.946,0.9535,0.955,0.9581,0.9536,0.9724,0.9728,0.9731,0.9742,0.9748,0.9753,0,0,0,0,0,0.9115,0.9174,0.9176,0.9194,0.9292,0.9361,0.9373,0.9396,0.938,0.9408,0.9438,0.9439,0.9568,0.9542,0.9559,0.9592,0.9722,0.9726,0.9731,0.974,0.9747,0.9753,0,0,0,0,0,0,0.9119,0.9182,0.9184,0.9264,0.9307,0.9362,0.9399,0.9403,0.9451,0.9448,0.9473,0.9486,0.9553,0.958,0.955,0.9663,0.9643,0.9651,0.9644,0.9651,0.9656,0.9648,0.9541,0,0,0,0,0,0.913,0.9182,0.9233,0.9298,0.932,0.9356,0.9387,0.94,0.9445,0.9463,0.9498,0.954,0.9589,0.9622,0.9671,0.9746,0.9756,0.9776,0.9782,0.9786,0.9792,0.9829,0.9838,0.9747,0.9747,0.9747,0,0,0.9152,0.9192,0.9224,0.93,0.9335,0.9386,0.9371,0.9427,0.9464,0.9471,0.9538,0.9564,0.9613,0.9684,0.9717,0.9708,0.9819,0.9792,0.9795,0.9799,0.9834,0.9843,0.985,0.975,0.975,0.9749,0,0,0.9217,0.9255,0.9311,0.9346,0.9398,0.9421,0.9434,0.9488,0.9505,0.9573,0.9578,0.9621,0.9708,0.9741,0.9769,0.9842,0.9843,0.9857,0.9885,0.9921,0.9928,0.9934,0.9957,0.9965,0.9863,0.9863,0.9863,0,0.9238,0.9316,0.934,0.9394,0.9426,0.9434,0.9489,0.9521,0.9587,0.9607,0.9596,0.9702,0.9736,0.9812,0.983,0.9854,0.9867,0.9851,0.9925,0.9932,0.9938,0.996,0.9969,0.9865,0.9864,0.9864,0.9864,0,0.9336,0.939,0.9429,0.9491,0.9528,0.9583,0.9611,0.9645,0.9654,0.9677,0.9743,0.9783,0.9838,0.9858,0.9868,0.9935,0.9927,0.9921,0.99,0.9948,0.9968,0.9977,0.9866,0.9866,0.9865,0.9865,0,0,0.941,0.9482,0.9495,0.9521,0.9578,0.9619,0.9672,0.9726,0.9752,0.9796,0.9839,0.991,0.9903,0.9935,0.9948,0.998,1.003,0.9969,0.997,0.9976,1.0101,1.0104,1.0114,1.0031,1.0033,1.0034,1.0096,0,0.9479,0.9575,0.9596,0.9678,0.9725,0.9732,0.9778,0.9816,0.9838,0.9879,0.9903,0.9952,0.9941,0.9959,0.9991,1.0017,1.0055,1.0013,1.0068,1.007,1.0054,1.0125,1.013,1.0186,1.0105,1.0106,1.0107,0,0.9574,0.9619,0.9705,0.9751,0.9772,0.9813,0.9861,0.9902,0.9944,0.9957,0.9991,1.0,1.0052,1.0029,1.0099,1.007,1.0094,1.0109,1.0112,1.0117,1.0091,1.0129,1.0206,1.0213,1.0121,1.012,1.0119,0,0.9614,0.9696,0.9757,0.978,0.9837,0.9864,0.9889,0.9929,0.9958,1.0,1.0018,1.0066,1.0091,1.0126,1.0146,1.0129,1.0213,1.0194,1.0223,1.0223,1.024,1.0239,1.0319,1.0259,1.0259,1.0259,1.0259,0,0.9688,0.974,0.9776,0.9813,0.987,0.9892,0.9947,0.9971,1.0005,1.0045,1.0054,1.0091,1.0117,1.0156,1.0172,1.0225,1.0238,1.0248,1.0251,1.0246,1.0244,1.026,1.0256,1.0261,1.026,1.026,1.026,0,0.9743,0.977,0.9836,0.9883,0.9896,0.9935,0.9974,1.0009,1.003,1.008,1.0093,1.0125,1.0172,1.0196,1.0255,1.0265,1.0324,1.0326,1.031,1.0311,1.0338,1.0334,1.043,1.0442,1.0376,1.0377,1.0377,0,0.9788,0.9828,0.9878,0.9905,0.993,0.9975,1.0004,1.0026,1.0056,1.0104,1.0132,1.0179,1.0218,1.0292,1.0319,1.0363,1.0364,1.0394,1.0371,1.0363,1.0361,1.0357,1.036,1.0398,1.0399,1.0399,1.04,0,0.9863,0.9873,0.9916,0.9962,0.9997,1.0035,1.0071,1.0093,1.012,1.0152,1.02,1.023,1.0288,1.0334,1.0378,1.0401,1.0404,1.0407,1.0416,1.041,1.0398,1.0402,1.0319,1.0405,1.0404,1.0404,1.0404,1.0403,0.9913,0.9946,0.9986,1.0032,1.0062,1.0095,1.0129,1.0153,1.0193,1.0243,1.0253,1.0302,1.0338,1.0399,1.0422,1.0459,1.0453,1.0466,1.0469,1.0472,1.0471,1.0393,1.0468,1.0468,1.0468,1.0468,1.0468,0,0.9986,1.0011,1.0053,1.0103,1.0138,1.0138,1.0178,1.0206,1.025,1.0284,1.0321,1.0374,1.0417,1.0447,1.0489,1.0513,1.0515,1.0523,1.0521,1.0525,1.0477,1.0463,1.0521,1.0521,1.0521,1.0521,1.0521,1.0521,1.0028,1.0084,1.0098,1.0167,1.0191,1.024,1.0262,1.0291,1.0318,1.0376,1.0412,1.0431,1.0462,1.0507,1.0545,1.0552,1.0566,1.0574,1.0581,1.0535,1.0529,1.0524,1.0511,1.0578,1.0578,1.0626,1.0627,1.0627]}]]